Weather History for Orangeburg, SC

Change the Weather History Date:

Tuesday, May 14, 2013

  Actual Average Record
Temperature  
Mean Temperature 61 °F 71 °F  
Max Temperature 75 °F 83 °F 95 °F (1980)
Min Temperature 46 °F 59 °F 45 °F (1960)
Degree Days  
Heating Degree Days 4 0  
Month to date heating degree days 24 10  
Since 1 July heating degree days 2180 2327  
Cooling Degree Days 0 7  
Month to date cooling degree days 32 70  
Year to date cooling degree days 122 155  
Growing Degree Days 10 (Base 50)    
Moisture  
Dew Point 40 °F    
Average Humidity 49    
Maximum Humidity 83    
Minimum Humidity 23    
Precipitation  
Precipitation 0.00 in 0.08 in 2.40 in (1959)
Month to date precipitation 1.50 1.15  
Year to date precipitation 16.30 15.55  
Sea Level Pressure  
Sea Level Pressure 30.20 in    
Wind  
Wind Speed 4 mph (SSW)    
Max Wind Speed 12 mph    
Max Gust Speed 17 mph    
Visibility 10 miles    
Events      
T = Trace of Precipitation, MM = Missing Value Source: NWS Daily Summary

Daily Weather History Graph

Daily Weather History Graph

Search for Another Location

Airport:

Trip Planner

Search our weather history database for the weather conditions in past years. The results will help you decide how hot, cold, wet, or windy it might be!

Date:

Astronomy

May. 14, 2013 Rise Set
Actual Time 6:23 AM EDT 8:16 PM EDT
Civil Twilight 5:56 AM EDT 8:43 PM EDT
Nautical Twilight 5:23 AM EDT 9:16 PM EDT
Astronomical Twilight 4:48 AM EDT 9:52 PM EDT
Moon 10:01 AM EDT (5/14) No Moon Set
Length of Visible Light 14h 47m
Length of Day
13h 52m
Waxing Crescent, 19% of the Moon is Illuminated
May 14
Waxing Crescent
May 18
First Quarter
May 25
Full
May 31
Last Quarter
Jun 8
New

Hourly Weather History & Observations

Time (EDT) Temp. Dew Point Humidity Pressure Visibility Wind Dir Wind Speed Gust Speed Precip Events Conditions
12:53 AM 51.1 °F 46.9 °F 86% 30.17 in 10.0 mi Calm Calm - N/A   Clear
1:53 AM 54.0 °F 42.1 °F 64% 30.18 in 10.0 mi North 3.5 mph - N/A   Clear
2:53 AM 48.9 °F 43.0 °F 80% 30.18 in 10.0 mi Calm Calm - N/A   Clear
3:53 AM 51.1 °F 41.0 °F 68% 30.18 in 10.0 mi NNW 5.8 mph - N/A   Clear
4:53 AM 48.0 °F 41.0 °F 77% 30.19 in 10.0 mi NNW 3.5 mph - N/A   Clear
5:53 AM 52.0 °F 35.1 °F 53% 30.19 in 10.0 mi NNE 4.6 mph - N/A   Clear
6:53 AM 46.9 °F 41.0 °F 80% 30.22 in 10.0 mi Calm Calm - N/A   Clear
7:53 AM 54.0 °F 39.0 °F 57% 30.24 in 10.0 mi NE 6.9 mph - N/A   Clear
8:53 AM 57.9 °F 39.9 °F 51% 30.26 in 10.0 mi East 5.8 mph - N/A   Clear
9:53 AM 62.1 °F 39.0 °F 43% 30.27 in 10.0 mi ESE 5.8 mph - N/A   Clear
10:53 AM 66.0 °F 37.0 °F 34% 30.27 in 10.0 mi Variable 4.6 mph - N/A   Clear
11:53 AM 68.0 °F 36.0 °F 31% 30.28 in 10.0 mi SE 3.5 mph - N/A   Clear
12:53 PM 70.0 °F 33.1 °F 26% 30.27 in 10.0 mi Calm Calm - N/A   Clear
1:53 PM 71.1 °F 35.1 °F 27% 30.25 in 10.0 mi SE 4.6 mph - N/A   Clear
2:53 PM 72.0 °F 34.0 °F 25% 30.21 in 10.0 mi Calm Calm - N/A   Clear
3:53 PM 73.9 °F 36.0 °F 25% 30.18 in 10.0 mi West 4.6 mph - N/A   Clear
4:53 PM 75.0 °F 37.0 °F 25% 30.17 in 10.0 mi West 5.8 mph - N/A   Clear
5:53 PM 75.0 °F 36.0 °F 24% 30.17 in 10.0 mi WSW 6.9 mph - N/A   Clear
6:53 PM 73.9 °F 37.9 °F 27% 30.16 in 10.0 mi South 5.8 mph - N/A   Clear
7:53 PM 71.1 °F 41.0 °F 34% 30.16 in 10.0 mi South 4.6 mph - N/A   Clear
8:53 PM 63.0 °F 46.9 °F 56% 30.16 in 10.0 mi Calm Calm - N/A   Clear
9:53 PM 61.0 °F 46.9 °F 60% 30.16 in 10.0 mi SSW 4.6 mph - N/A   Clear
10:53 PM 62.1 °F 48.9 °F 62% 30.17 in 10.0 mi SSW 5.8 mph - N/A   Clear
11:53 PM 60.1 °F 48.9 °F 67% 30.15 in 10.0 mi South 4.6 mph - N/A   Clear